Probability
52 55 52 48 45 42 39 35 26 23 23 29 35 35 26 23 6 13 29 3 0 0 0 0 0 0 0 0 0 0 0 3 3 3 3 6 6 10
45 45 42 42 42 39 35 35 32 23 26 32 29 26 26 10 6 23 26 10 3 3 3 0 0 0 0 0 0 0 0 0 0 3 3 0 3 0
42 42 39 39 42 39 39 35 35 32 26 26 23 35 32 29 13 26 23 16 10 3 3 3 0 0 0 0 0 0 0 0 0 0 0 0 0 0
42 42 39 35 42 42 39 32 32 29 26 23 23 26 26 29 26 29 23 16 16 6 3 0 0 0 0 0 0 0 0 0 0 0 0 0 0 0
42 39 39 39 39 35 42 42 42 35 26 26 26 19 29 26 29 29 23 23 19 6 3 3 3 0 0 0 0 0 0 0 0 0 0 0 0 0
35 39 39 35 32 39 39 42 39 32 35 29 26 29 19 26 26 26 23 19 19 10 3 3 3 3 0 0 0 0 0 0 0 0 0 0 0 0
29 32 32 29 23 19 19 29 32 29 26 26 23 16 13 19 19 23 16 13 19 10 16 6 3 6 3 3 0 0 0 0 0 0 0 0 0 0
42 42 29 26 23 19 13 16 13 23 26 23 19 16 16 26 35 19 19 23 13 16 16 16 10 6 3 3 3 0 0 0 0 0 0 0 0 0
39 39 29 26 26 26 16 10 3 0 6 19 16 16 16 19 29 29 23 23 16 13 6 10 10 19 10 6 3 0 0 0 0 0 0 0 0 0
39 39 32 32 19 16 23 23 23 26 10 3 13 16 19 19 23 19 16 19 16 19 13 13 16 13 13 13 3 0 0 0 0 0 0 0 0 0
32 23 29 19 16 13 16 19 19 19 16 3 3 6 3 0 6 16 23 16 13 13 13 10 10 13 10 13 10 0 0 0 0 0 0 0 0 0
35 23 10 13 13 6 13 16 16 19 19 13 3 3 3 6 0 3 13 10 6 6 13 6 6 10 6 10 6 3 0 0 0 0 0 0 0 0
23 16 13 6 0 0 0 13 10 10 13 10 10 16 16 13 10 6 13 13 10 6 3 6 3 6 3 6 10 6 6 3 3 0 0 0 0 0
19 13 13 6 3 0 0 0 0 0 3 10 10 10 10 10 10 10 10 10 13 10 10 10 10 10 3 0 0 3 3 3 3 0 0 0 0 0
13 6 10 3 0 0 0 0 0 0 3 6 10 10 10 10 13 13 13 10 6 6 6 3 3 6 0 0 0 0 0 3 3 3 0 0 0 0
3 6 6 3 0 0 3 3 0 0 3 6 10 10 10 10 6 6 3 3 3 3 3 3 3 3 0 0 0 0 0 0 0 0 0 3 0 0
6 6 10 13 6 6 10 6 3 3 0 3 6 10 10 6 3 10 3 3 3 3 3 3 3 0 0 0 0 0 0 0 0 0 0 0 0 0
6 13 13 10 10 10 10 3 3 3 10 10 10 6 6 6 3 6 3 3 3 0 0 0 0 0 0 0 0 0 0 0 0 0 0 0 0 0
3 3 10 10 6 6 6 6 6 6 6 10 10 10 10 6 6 3 3 3 3 0 0 0 0 0 0 0 0 0 0 0 0 0 0 0 0 0
0 0 0 6 6 6 3 3 3 3 3 6 10 10 6 6 6 0 3 3 3 0 0 0 0 0 0 0 0 0 0 0 0 0 0 0 0 0
0 0 3 3 3 3 3 3 6 3 3 3 3 6 6 6 6 6 3 3 3 3 0 0 0 0 0 0 0 0 0 0 0 0 0 0 0 0
6 6 6 3 6 6 6 3 3 3 6 6 3 6 6 6 6 6 3 3 3 3 0 0 0 3 0 0 0 0 0 0 0 0 0 0 0 0
3 6 3 3 3 3 3 3 3 6 6 3 3 3 6 6 6 6 3 3 3 3 3 0 0 0 0 0 0 0 0 0 0 0 0 0 0 0
Height
5876 5875 5874 5873 5871 5870 5869 5868 5866 5865 5865 5863 5862 5861 5859 5858 5856 5855 5854 5853 5852 5851 5849 5848 5847 5846 5845 5844 5843 5842 5842 5842 5841 5841 5841 5840 5840 5840
5872 5871 5870 5869 5867 5866 5865 5863 5862 5861 5860 5858 5857 5855 5853 5852 5851 5849 5848 5848 5847 5845 5844 5843 5842 5841 5840 5839 5838 5838 5837 5837 5836 5836 5835 5835 5834 5834
5868 5867 5865 5864 5862 5861 5859 5858 5857 5855 5854 5853 5851 5850 5848 5847 5846 5844 5843 5841 5841 5840 5839 5838 5837 5836 5835 5834 5833 5833 5832 5831 5830 5830 5829 5829 5828 5828
5863 5862 5860 5859 5858 5856 5854 5853 5851 5850 5848 5847 5846 5844 5843 5841 5840 5838 5837 5836 5835 5834 5833 5832 5831 5830 5829 5828 5827 5826 5826 5825 5824 5824 5823 5822 5822 5821
5858 5857 5855 5854 5852 5850 5849 5847 5845 5844 5842 5841 5839 5838 5837 5835 5834 5832 5831 5830 5829 5828 5827 5826 5825 5824 5823 5822 5821 5820 5819 5819 5818 5817 5816 5816 5815 5815
5853 5852 5850 5848 5846 5844 5843 5841 5839 5838 5836 5834 5833 5831 5830 5829 5827 5826 5825 5824 5823 5821 5820 5819 5818 5817 5816 5815 5814 5813 5813 5812 5811 5810 5809 5809 5808 5807
5849 5846 5844 5842 5840 5838 5837 5835 5833 5831 5829 5828 5826 5825 5824 5822 5821 5819 5819 5817 5816 5815 5814 5812 5811 5810 5809 5808 5807 5806 5805 5804 5804 5803 5802 5801 5800 5799
5843 5841 5839 5836 5834 5832 5830 5829 5827 5825 5823 5822 5820 5819 5817 5816 5814 5813 5812 5811 5810 5808 5807 5805 5804 5803 5801 5800 5799 5798 5797 5796 5795 5795 5794 5793 5792 5791
5838 5835 5833 5831 5829 5827 5825 5823 5821 5819 5817 5816 5814 5813 5811 5809 5808 5807 5805 5804 5803 5801 5799 5798 5796 5795 5794 5793 5791 5790 5789 5788 5787 5786 5785 5784 5783 5783
5833 5831 5828 5826 5823 5821 5819 5817 5815 5813 5811 5810 5808 5807 5805 5803 5802 5800 5799 5797 5795 5793 5792 5790 5789 5787 5786 5784 5783 5782 5781 5780 5779 5777 5776 5775 5774 5774
5827 5825 5823 5820 5818 5815 5813 5811 5809 5807 5805 5803 5802 5800 5798 5796 5795 5793 5791 5790 5788 5786 5784 5783 5781 5779 5778 5776 5775 5773 5772 5771 5770 5769 5767 5766 5765 5765
5822 5819 5817 5814 5812 5809 5807 5805 5803 5801 5799 5797 5795 5793 5791 5789 5787 5785 5784 5782 5780 5779 5777 5775 5773 5771 5770 5768 5766 5764 5763 5762 5760 5759 5758 5757 5756 5755
5815 5813 5811 5808 5806 5803 5801 5799 5797 5795 5792 5790 5788 5786 5784 5782 5780 5778 5776 5774 5772 5770 5769 5766 5764 5762 5761 5759 5758 5756 5754 5752 5751 5750 5748 5747 5747 5746
5808 5806 5804 5802 5799 5797 5795 5793 5790 5788 5786 5784 5781 5779 5777 5774 5772 5770 5767 5765 5763 5761 5759 5757 5755 5753 5751 5750 5748 5747 5744 5743 5742 5741 5739 5738 5737 5736
5800 5799 5797 5794 5792 5790 5788 5786 5783 5780 5778 5776 5774 5771 5769 5766 5763 5761 5759 5757 5754 5752 5750 5748 5746 5743 5741 5740 5738 5737 5735 5733 5732 5731 5729 5728 5727 5726
5792 5791 5789 5787 5785 5783 5780 5778 5775 5773 5770 5768 5765 5763 5760 5758 5755 5753 5750 5748 5746 5743 5740 5738 5736 5733 5731 5729 5728 5726 5725 5724 5722 5720 5719 5718 5717 5716
5785 5783 5781 5779 5777 5774 5772 5770 5767 5764 5762 5759 5756 5754 5751 5749 5746 5743 5741 5738 5736 5734 5731 5728 5725 5723 5721 5719 5717 5716 5714 5713 5711 5710 5709 5708 5707 5706
5776 5774 5772 5770 5768 5765 5763 5760 5758 5755 5752 5750 5747 5744 5742 5739 5736 5733 5731 5728 5725 5723 5720 5718 5715 5712 5711 5709 5707 5705 5703 5702 5701 5699 5698 5698 5697 5696
5767 5766 5764 5761 5759 5756 5753 5751 5748 5745 5743 5740 5737 5734 5731 5729 5726 5723 5720 5717 5714 5712 5709 5706 5703 5701 5699 5698 5696 5694 5692 5691 5690 5689 5688 5687 5687 5686
5759 5757 5754 5752 5749 5747 5744 5741 5738 5736 5733 5730 5727 5724 5721 5718 5715 5712 5709 5706 5703 5700 5697 5694 5691 5689 5687 5685 5684 5682 5680 5679 5678 5678 5677 5676 5675 5675
5750 5748 5746 5743 5740 5737 5734 5731 5728 5726 5723 5720 5717 5714 5710 5707 5704 5701 5697 5694 5691 5688 5685 5682 5679 5676 5674 5672 5671 5670 5669 5667 5666 5665 5665 5664 5664 5663
5740 5738 5736 5733 5731 5728 5724 5721 5718 5715 5712 5709 5706 5703 5699 5696 5693 5689 5686 5682 5679 5675 5672 5670 5667 5664 5662 5659 5658 5657 5656 5655 5653 5652 5652 5652 5651 5651
5731 5729 5726 5723 5721 5718 5715 5712 5708 5705 5702 5699 5695 5692 5688 5685 5681 5677 5673 5670 5667 5663 5660 5657 5654 5651 5649 5647 5645 5643 5642 5642 5641 5640 5640 5639 5638 5638
Wind_Speed
17 17 18 18 18 18 18 18 19 18 18 18 19 19 19 18 18 19 18 18 18 18 18 18 17 16 16 16 16 16 16 17 18 18 19 19 19 19
18 19 19 20 19 19 19 20 20 19 19 20 20 20 20 19 20 20 20 20 19 19 19 19 19 18 18 17 18 18 18 18 19 20 20 20 21 21
19 19 19 20 20 20 20 19 20 20 21 21 21 21 21 21 21 21 21 21 20 20 20 19 19 19 18 19 19 19 19 19 19 19 19 20 21 20
19 20 20 21 21 21 20 20 21 22 22 21 22 22 22 22 21 21 21 22 21 21 21 21 21 21 21 21 20 20 20 20 20 21 21 21 22 22
20 20 20 21 22 22 22 22 22 22 23 22 23 23 22 22 22 22 22 22 22 22 22 22 22 22 22 22 21 21 21 21 21 22 22 22 22 23
21 21 21 22 22 22 23 23 23 23 23 23 23 22 23 22 23 22 22 23 23 23 23 23 23 23 23 23 23 23 23 23 23 23 23 23 23 24
23 23 23 22 23 23 23 23 23 23 22 23 23 22 22 22 23 24 23 23 23 24 24 23 24 24 25 25 25 25 24 25 25 25 25 25 25 25
23 23 24 24 24 23 23 23 23 22 23 23 23 23 23 23 23 24 24 23 24 25 25 25 25 25 25 25 25 25 25 25 25 25 25 25 25 25
24 23 23 23 24 23 24 23 23 23 23 23 23 23 24 24 24 24 24 25 25 25 25 25 25 25 25 25 26 26 26 26 26 26 26 27 27 27
24 24 24 24 23 23 23 23 23 24 24 24 24 24 25 25 25 25 25 26 26 26 26 26 25 25 26 26 26 26 26 27 27 27 28 28 28 28
25 24 24 24 23 24 24 24 24 24 24 25 25 25 25 25 25 25 26 27 27 27 27 27 27 27 26 27 27 26 27 27 28 28 28 28 28 28
26 26 26 25 24 24 24 24 24 25 25 26 26 26 26 26 26 26 26 27 28 28 28 28 28 28 27 27 27 28 28 28 28 29 29 29 28 28
26 26 26 25 24 25 25 25 26 26 26 26 26 27 27 28 28 28 28 29 29 29 29 29 30 29 29 28 28 29 29 29 29 29 29 29 29 28
27 26 26 26 26 27 27 27 27 27 27 28 28 29 29 29 29 29 30 30 30 30 30 31 31 31 31 31 30 30 30 30 30 30 30 30 30 29
28 28 27 27 28 28 29 29 29 29 29 29 29 29 30 30 30 31 31 31 31 31 32 32 32 32 32 31 31 31 31 30 31 31 30 30 31 31
29 29 29 29 29 29 30 30 30 30 30 31 31 31 31 31 30 31 31 32 32 32 33 34 34 33 33 33 32 32 32 31 31 31 31 31 31 30
30 30 29 30 30 30 31 31 31 31 32 32 33 32 32 33 33 33 33 33 33 33 33 34 34 33 33 33 33 33 33 32 31 30 30 30 30 29
30 30 30 31 31 31 32 32 32 32 33 33 34 34 34 34 34 34 35 35 35 35 35 35 35 35 35 34 34 34 33 32 31 31 30 30 29 29
31 32 32 32 33 33 33 33 34 34 34 34 34 34 34 35 36 36 37 36 36 36 36 36 36 37 37 36 35 35 34 33 32 31 31 32 31 31
32 33 33 33 33 34 34 33 33 33 33 34 34 35 35 36 37 38 38 38 38 38 38 37 37 37 37 37 36 35 35 35 34 33 32 33 33 33
32 32 33 33 34 34 34 34 34 34 34 35 35 36 36 37 38 38 38 39 39 39 39 38 38 37 37 37 36 35 35 35 35 35 35 34 35 34
33 33 34 33 34 35 34 34 34 35 35 36 37 37 37 38 38 38 38 39 39 38 38 38 38 37 37 37 37 37 36 36 36 36 36 36 35 35
33 33 34 33 33 33 34 34 35 35 36 37 37 38 38 39 39 39 39 38 38 39 38 38 38 38 37 38 37 37 37 36 36 36 36 36 36 36
Wind_Direction
306 305 304 303 301 299 298 297 298 298 296 298 298 297 298 298 301 300 299 299 299 299 299 298 297 297 293 287 282 282 279 276 275 275 275 276 275 273
305 303 301 302 301 300 298 297 297 297 298 297 296 297 296 297 298 298 297 295 294 294 295 296 295 294 293 291 288 282 279 279 279 277 274 273 272 271
303 302 300 300 301 302 300 298 297 297 298 296 295 295 296 296 295 294 294 292 292 294 293 294 293 293 292 291 288 285 282 282 282 283 282 279 275 276
303 302 300 299 299 299 298 298 297 296 297 297 295 293 294 295 296 295 292 289 289 291 291 293 292 291 291 291 288 285 282 282 282 283 283 281 279 278
307 305 301 300 297 296 296 297 297 296 297 296 296 293 293 294 294 294 295 291 289 289 291 292 291 289 288 287 287 287 285 282 281 281 281 280 279 278
307 305 303 302 298 297 296 296 296 296 298 297 297 296 294 294 295 295 296 295 292 289 289 290 290 289 288 285 285 284 284 284 282 282 281 280 279 278
307 304 303 301 300 299 298 297 296 296 297 297 296 296 296 296 296 295 294 296 295 292 290 290 290 289 288 287 286 285 283 281 281 282 282 280 278 277
307 304 301 299 301 299 298 298 298 297 297 297 297 297 297 297 298 296 294 293 294 294 294 292 291 291 291 289 288 286 284 283 282 283 283 282 279 276
310 308 306 305 303 301 300 299 298 297 297 298 298 298 297 297 297 296 294 294 295 296 295 295 293 291 290 289 287 286 285 283 282 282 282 282 280 277
310 310 309 309 305 304 302 301 300 299 298 297 297 297 297 297 296 295 293 294 294 295 296 296 295 294 290 289 288 284 283 282 282 283 283 283 281 278
306 307 307 308 307 304 302 301 301 300 299 297 296 295 295 295 296 296 294 294 293 294 294 294 295 295 294 291 288 286 285 283 283 283 283 282 280 277
304 305 305 304 304 304 303 303 303 301 299 298 297 295 294 293 294 294 293 293 294 294 294 293 293 293 294 292 289 288 288 286 284 283 282 280 279 276
301 302 302 302 302 304 304 303 302 301 300 300 299 297 295 293 293 291 291 292 293 294 293 292 292 292 293 292 290 290 290 288 288 286 283 280 278 276
300 300 301 299 299 300 301 301 301 301 301 301 300 299 299 295 292 290 289 290 291 292 293 294 294 293 292 291 291 290 290 288 288 287 285 281 278 275
299 299 300 299 297 298 298 298 299 299 300 300 300 300 300 298 295 293 292 293 293 293 293 294 294 294 293 292 290 290 289 288 287 286 284 280 277 275
297 298 299 298 295 296 296 296 297 298 299 299 300 299 299 298 298 297 296 295 294 294 293 293 294 294 292 290 290 289 288 287 285 283 283 281 278 276
296 296 296 296 295 295 295 296 296 296 296 298 298 298 298 298 298 298 297 297 296 295 294 293 294 293 291 290 289 288 286 285 284 283 282 279 276 275
295 296 296 296 295 295 295 295 296 296 297 297 297 297 297 297 298 297 297 296 296 295 295 294 293 292 290 290 289 287 285 285 283 282 282 279 277 275
293 295 297 297 296 295 295 296 296 297 297 297 297 297 297 297 297 296 296 296 296 295 294 292 291 290 289 288 286 286 285 284 282 282 281 280 279 279
292 294 296 297 297 296 296 296 296 296 296 297 298 297 297 297 297 296 296 296 296 295 293 292 291 290 289 288 286 284 282 282 281 280 279 278 278 279
293 294 295 297 297 298 297 296 296 296 297 297 298 298 298 298 298 298 298 298 298 296 294 293 291 290 288 286 285 283 282 281 280 279 278 277 278 278
294 295 296 297 298 298 298 297 297 297 298 299 299 299 299 299 300 299 299 299 298 297 295 293 292 290 288 287 285 283 281 280 280 279 278 278 277 276
296 297 298 299 300 300 300 299 298 299 299 299 299 300 300 301 300 299 299 298 298 297 295 294 292 290 288 286 285 285 282 280 278 278 277 277 276 274